Fremont, MI

5:24 PM EST on November 13, 2019 (GMT -0500)
Fremont

Weather History for KFFX - October, 2019

Change the Weather History Date:

Tuesday, October 15, 2019

  Actual Average (KMKG) Record (KMKG)
Temperature  
Mean Temperature 44 °F -  
Max Temperature 54 °F 59 °F 86 °F (1899)
Min Temperature 33 °F 44 °F 25 °F (1944)
Degree Days  
Heating Degree Days 22    
Moisture  
Dew Point 38 °F    
Average Humidity 79    
Maximum Humidity 100    
Minimum Humidity 52    
Precipitation  
Precipitation 0.00 in - - ()
Sea Level Pressure  
Sea Level Pressure 29.86 in    
Wind  
Wind Speed 3 mph ()    
Max Wind Speed 15 mph    
Max Gust Speed 26 mph    
Visibility 9.1 miles    
Events Rain    
Averages and records for this station are not official NWS values.
T = Trace of Precipitation, MM = Missing Value Source: Averaged Metar Reports

Daily Weather History Graph

Daily Weather History Graph

Search for Another Location

Airport or City:

Astronomy

Oct. 15, 2019 Rise Set
Actual Time 7:57 AM EDT 7:01 PM EDT
Civil Twilight 7:28 AM EDT 7:29 PM EDT
Nautical Twilight 6:55 AM EDT 8:02 PM EDT
Astronomical Twilight 6:22 AM EDT 8:36 PM EDT
Moon 8:18 PM EDT (10/15) 9:29 AM EDT (10/15)
Length of Visible Light 12h 01m
Length of Day
11h 03m
Full, 97% of the Moon is Illuminated
Oct 15
Full
Oct 21
Last Quarter
Oct 27
New
Nov 4
First Quarter
Nov 12
Full

Hourly Weather History & Observations

Time (EDT) Temp. Windchill Dew Point Humidity Pressure Visibility Wind Dir Wind Speed Gust Speed Precip Events Conditions
12:15 AM 36.0 °F - 33.6 °F 91% 30.07 in 10.0 mi Calm Calm - N/A   Clear
12:16 AM 35.8 °F - 33.8 °F 92% 30.07 in 10.0 mi Calm Calm - N/A   Clear
12:35 AM 35.8 °F - 33.6 °F 92% 30.07 in 10.0 mi Calm Calm - N/A   Clear
12:36 AM 35.8 °F - 33.8 °F 92% 30.07 in 10.0 mi Calm Calm - N/A   Clear
12:59 AM 36.1 °F - 33.8 °F 91% 30.07 in 10.0 mi Calm Calm - N/A   Clear
1:17 AM 35.8 °F - 33.6 °F 92% 30.06 in 10.0 mi Calm Calm - N/A   Clear
1:35 AM 35.4 °F - 34.5 °F 97% 30.06 in 10.0 mi Calm Calm - N/A   Clear
1:55 AM 35.4 °F - 34.0 °F 94% 30.07 in 10.0 mi Calm Calm - N/A   Clear
2:15 AM 34.5 °F - 33.4 °F 96% 30.06 in 10.0 mi Calm Calm - N/A   Clear
2:38 AM 34.7 °F - 33.4 °F 95% 30.07 in 10.0 mi Calm Calm - N/A   Clear
2:56 AM 34.7 °F - 33.1 °F 94% 30.06 in 10.0 mi Calm Calm - N/A   Clear
3:15 AM 35.1 °F - 33.3 °F 93% 30.06 in 10.0 mi Calm Calm - N/A   Clear
3:35 AM 34.7 °F - 32.9 °F 93% 30.06 in 10.0 mi Calm Calm - N/A   Clear
4:17 AM 34.0 °F - 32.7 °F 95% 30.05 in 10.0 mi Calm Calm - N/A   Clear
4:35 AM 34.9 °F - 33.6 °F 95% 30.05 in 10.0 mi Calm Calm - N/A   Clear
4:36 AM 34.9 °F - 33.6 °F 95% 30.05 in 10.0 mi Calm Calm - N/A   Clear
4:55 AM 33.8 °F - 32.2 °F 94% 30.04 in 10.0 mi Calm Calm - N/A   Clear
5:15 AM 34.9 °F - 32.9 °F 92% 30.05 in 10.0 mi Calm Calm - N/A   Clear
5:20 AM 34.9 °F - 32.7 °F 92% 30.04 in 10.0 mi Calm Calm - N/A   Clear
5:38 AM 34.5 °F - 33.1 °F 94% 30.04 in 10.0 mi Calm Calm - N/A   Clear
5:56 AM 35.1 °F 32.2 °F 32.4 °F 90% 30.04 in 10.0 mi SE 3.5 mph - N/A   Clear
6:15 AM 36.7 °F 32.9 °F 32.9 °F 86% 30.03 in 10.0 mi SE 4.6 mph - N/A   Clear
6:16 AM 36.7 °F 34.1 °F 32.9 °F 86% 30.03 in 10.0 mi SE 3.5 mph - N/A   Clear
6:35 AM 36.7 °F 32.9 °F 32.9 °F 86% 30.03 in 10.0 mi SE 4.6 mph - N/A   Clear
6:36 AM 36.7 °F 32.9 °F 32.9 °F 86% 30.03 in 10.0 mi SE 4.6 mph - N/A   Clear
6:59 AM 36.7 °F 32.0 °F 33.1 °F 87% 30.02 in 10.0 mi SE 5.8 mph - N/A   Clear
7:17 AM 36.5 °F 33.9 °F 33.1 °F 87% 30.02 in 10.0 mi ESE 3.5 mph - N/A   Clear
7:35 AM 36.7 °F 31.2 °F 33.1 °F 87% 30.00 in 10.0 mi ESE 6.9 mph - N/A   Clear
7:55 AM 37.4 °F 32.1 °F 33.1 °F 84% 29.99 in 10.0 mi ESE 6.9 mph - N/A   Clear
7:56 AM 37.4 °F 32.1 °F 33.1 °F 84% 29.99 in 10.0 mi ESE 6.9 mph - N/A   Clear
8:15 AM 37.4 °F 32.8 °F 32.9 °F 84% 29.98 in 10.0 mi ESE 5.8 mph - N/A   Clear
8:20 AM 37.6 °F 32.3 °F 32.7 °F 83% 29.99 in 10.0 mi ESE 6.9 mph - N/A   Clear
8:38 AM 37.6 °F 33.1 °F 32.9 °F 83% 29.98 in 10.0 mi ESE 5.8 mph - N/A   Clear
8:56 AM 38.5 °F 34.1 °F 32.2 °F 78% 29.97 in 10.0 mi ESE 5.8 mph - N/A   Clear
9:15 AM 39.2 °F 34.2 °F 32.0 °F 75% 29.96 in 10.0 mi ESE 6.9 mph - N/A   Clear
9:35 AM 41.0 °F 36.4 °F 31.1 °F 68% 29.95 in 10.0 mi SE 6.9 mph - N/A   Clear
9:36 AM 41.0 °F 36.4 °F 31.1 °F 68% 29.95 in 10.0 mi SE 6.9 mph - N/A   Clear
9:59 AM 43.3 °F 39.2 °F 31.8 °F 64% 29.95 in 10.0 mi SE 6.9 mph - N/A   Clear
10:17 AM 43.7 °F 39.1 °F 32.0 °F 63% 29.94 in 10.0 mi SSE 8.1 mph - N/A   Clear
10:35 AM 45.5 °F 42.5 °F 32.2 °F 60% 29.95 in 10.0 mi SSE 5.8 mph - N/A   Clear
10:55 AM 46.9 °F - 32.4 °F 57% 29.94 in 10.0 mi SSE 3.5 mph - N/A   Clear
11:15 AM 47.5 °F - 32.5 °F 56% 29.93 in 10.0 mi SE 5.8 mph - N/A   Clear
11:38 AM 47.7 °F - 33.1 °F 57% 29.91 in 10.0 mi ESE 9.2 mph - N/A   Mostly Cloudy
11:56 AM 48.7 °F - 33.4 °F 56% 29.91 in 10.0 mi SE 5.8 mph - N/A   Overcast
12:15 PM 50.2 °F - 33.3 °F 52% 29.89 in 10.0 mi SE 6.9 mph - N/A   Overcast
12:35 PM 50.2 °F - 33.8 °F 53% 29.87 in 10.0 mi ESE 8.1 mph - N/A   Overcast
12:59 PM 50.9 °F - 34.3 °F 53% 29.84 in 10.0 mi ESE 8.1 mph - N/A Rain Light Rain
1:17 PM 50.9 °F - 34.7 °F 54% 29.83 in 10.0 mi SE 8.1 mph 19.6 mph N/A   Overcast
1:35 PM 50.9 °F - 34.5 °F 54% 29.82 in 10.0 mi SE 5.8 mph 16.1 mph N/A   Overcast
1:36 PM 50.9 °F - 34.5 °F 54% 29.82 in 10.0 mi SE 8.1 mph 16.1 mph N/A   Overcast
1:55 PM 50.9 °F - 34.7 °F 54% 29.81 in 10.0 mi SE 8.1 mph - N/A Rain Light Rain
2:15 PM 49.5 °F - 37.8 °F 64% 29.79 in 10.0 mi SSE 10.4 mph - N/A Rain Light Rain
2:38 PM 50.2 °F - 38.5 °F 64% 29.78 in 10.0 mi SSE 8.1 mph - N/A   Overcast
2:56 PM 50.9 °F - 38.8 °F 63% 29.76 in 10.0 mi SE 8.1 mph 16.1 mph N/A   Overcast
3:15 PM 51.3 °F - 39.0 °F 63% 29.75 in 10.0 mi ESE 8.1 mph - N/A   Overcast
3:35 PM 51.4 °F - 39.0 °F 63% 29.73 in 10.0 mi SE 6.9 mph - N/A   Overcast
3:59 PM 52.7 °F - 38.3 °F 58% 29.72 in 10.0 mi SE 8.1 mph - N/A   Overcast
4:17 PM 52.7 °F - 38.5 °F 58% 29.71 in 10.0 mi SE 6.9 mph - N/A   Overcast
4:35 PM 53.2 °F - 38.1 °F 57% 29.71 in 10.0 mi ESE 9.2 mph - N/A   Overcast
4:36 PM 53.4 °F - 38.1 °F 56% 29.71 in 10.0 mi SE 6.9 mph - N/A   Overcast
4:55 PM 53.8 °F - 37.8 °F 55% 29.71 in 10.0 mi SSE 5.8 mph - N/A   Overcast
4:56 PM 53.8 °F - 37.8 °F 55% 29.71 in 10.0 mi SSE 5.8 mph - N/A   Overcast
5:15 PM 54.1 °F - 37.9 °F 54% 29.70 in 10.0 mi SSE 4.6 mph - N/A   Overcast
5:38 PM 54.1 °F - 37.9 °F 54% 29.70 in 10.0 mi SE 3.5 mph - N/A   Overcast
5:56 PM 54.1 °F - 38.3 °F 55% 29.69 in 10.0 mi ESE 6.9 mph - N/A   Overcast
6:15 PM 53.8 °F - 39.4 °F 58% 29.69 in 10.0 mi South 3.5 mph - N/A Rain Light Rain
6:16 PM 53.8 °F - 39.4 °F 58% 29.70 in 10.0 mi SSE 4.6 mph - N/A Rain Light Rain
6:35 PM 53.8 °F - 40.1 °F 60% 29.70 in 10.0 mi SSE 5.8 mph - N/A Rain Light Rain
6:59 PM 52.7 °F - 49.6 °F 89% 29.69 in 7.0 mi South 6.9 mph 17.3 mph N/A   Drizzle
7:35 PM 52.7 °F - 52.3 °F 99% 29.68 in 4.0 mi South 4.6 mph - N/A   Heavy Drizzle
7:36 PM 52.7 °F - 52.3 °F 99% 29.68 in 4.0 mi South 4.6 mph - N/A   Heavy Drizzle
7:55 PM 52.9 °F - 52.7 °F 99% 29.67 in 3.0 mi South 3.5 mph - N/A Rain Rain
7:56 PM 52.9 °F - 52.7 °F 99% 29.67 in 3.0 mi South 3.5 mph - N/A Rain Rain
8:15 PM 53.2 °F - 52.9 °F 99% 29.66 in 4.0 mi Calm Calm - N/A Rain Light Rain
8:38 PM 54.1 °F - 54.0 °F 99% 29.65 in 5.0 mi West 3.5 mph - N/A   Overcast
8:56 PM 54.5 °F - 54.5 °F 100% 29.65 in 5.0 mi West 4.6 mph - N/A   Overcast
9:15 PM 54.5 °F - 54.1 °F 99% 29.64 in 4.0 mi WSW 3.5 mph - N/A   Overcast
9:16 PM 54.3 °F - 54.1 °F 99% 29.64 in 4.0 mi WSW 3.5 mph - N/A   Overcast
9:35 PM 53.8 °F - 53.6 °F 99% 29.64 in 3.0 mi Calm Calm - N/A   Overcast
9:59 PM 54.0 °F - 53.8 °F 99% 29.63 in 2.5 mi Calm Calm - N/A   Overcast
10:17 PM 53.6 °F - 53.2 °F 99% 29.65 in 2.5 mi NW 15.0 mph 24.2 mph N/A Rain Heavy Rain
10:35 PM 51.6 °F - 50.0 °F 94% 29.65 in 10.0 mi WNW 15.0 mph - N/A Rain Light Rain
10:55 PM 50.9 °F - 49.1 °F 94% 29.66 in 10.0 mi WNW 11.5 mph 17.3 mph N/A   Overcast
10:56 PM 50.9 °F - 49.1 °F 94% 29.66 in 10.0 mi WNW 11.5 mph 17.3 mph N/A   Overcast
11:15 PM 50.5 °F - 48.4 °F 92% 29.65 in 10.0 mi WNW 8.1 mph 16.1 mph N/A   Overcast
11:20 PM 50.4 °F - 48.4 °F 93% 29.66 in 10.0 mi WNW 15.0 mph 21.9 mph N/A   Overcast
11:38 PM 49.3 °F - 46.4 °F 90% 29.66 in 10.0 mi WNW 15.0 mph 26.5 mph N/A   Overcast
11:56 PM 48.7 °F - 45.9 °F 90% 29.66 in 10.0 mi WNW 9.2 mph - N/A   Overcast